Boeing Field King County International Airport
KBFI : now visible

Airfield :











YOU CAN JOIN US ON...

 
LOGIN :

Register | Disclaimer

   EN    FR    IT 

 









Legend :    VFR   Marginal VFR   IFR   Intensive IFR   Very Intensive IFR
Visi :
Ceiling :
>= 8 km
>= 3000ft
5 to 8 km
1000 to 3000 ft
1500m to 5 km
500 to 1000 ft
800 to 1500m
200 to 500 ft
< 800m
< 200 ft
Symbols :   Thunderstorms  Fog  Heavy snow  Heavy precipitations  Wind > 20 kt






- Airport Elevation : 21 ft
- IATA code : BFI


KBFI - Boeing Field King County International

CURRENT METAR :
  • 190853Z 00000KT 8SM BKN005 04/03 A3054 RMK AO2 SLP342 T00390028 58006

EXPIRED METARs :
  • 190753Z 00000KT 10SM SCT003 03/02 A3056 RMK AO2 SLP347 T00330022 400940033
  • 190653Z 00000KT 10SM CLR 04/02 A3056 RMK AO2 SLP347 T00390022

TAF KBFI
Valid from the 19 at 09:00 until the 20 at 06:00 UTC


190907Z 1909/2006 00000KT 4SM BR OVC003
FM191700 15004KT 5SM BR BKN006
FM191800 17005KT P6SM SCT200
FM200500 18004KT P6SM BKN070 BKN200
KZSE FIR / North America



MET'MAP, your aeronautical weather chart ! - Copyright ORBIFLY December 2007 - Disclaimer

ORBIFLY MET'MAP TEAM :

Programming & Development : Alexandra Zaïnal
Concept & original design : Baudouin d'Aumeries
Assistance for programming : Marc-Olivier Méhu
Technical & hardware support : Manuel Goepfert

Contact : metmap@orbifly.com




SOURCES & CREDITS :

   NOAA       Earth
Advisory